Dewpoint
73 73 74 74 74 73 75 76 76 76 76 77 76 76 76 76 76 76 76 76 76 76 76 76 76 76 76 76 76 76 76 76 76 75 75 75 75 75 75 75 75 75 75 74 74 74 74 74 74 74 74 74 75 75 75 75 75 75 74 74 75 75 74 74 75 75 74 75 75 76 75 75 74 74 75 75 75 74 74 74 74 72 73 74 75
73 73 74 75 75 74 74 75 75 76 76 76 76 76 76 76 76 75 76 76 76 76 77 77 76 76 76 76 76 76 76 76 76 75 75 75 75 75 75 75 75 75 74 74 74 74 74 74 74 74 74 74 74 74 74 75 75 74 74 74 74 74 74 74 74 73 73 75 75 75 75 74 75 75 75 75 75 74 74 74 74 72 73 75 75
73 74 74 75 75 76 75 75 76 76 76 76 76 76 76 76 76 76 76 76 76 76 77 76 76 76 76 76 76 75 75 75 75 75 74 74 74 74 75 75 74 75 74 74 74 74 74 74 74 74 74 74 74 75 74 74 75 74 74 74 74 74 74 74 74 74 74 74 75 75 75 74 74 74 74 75 75 74 74 74 74 73 73 74 74
73 73 73 75 75 76 76 76 76 76 76 76 76 77 77 76 76 76 76 76 76 76 76 76 75 75 75 75 75 75 75 75 75 74 74 74 74 75 74 74 75 74 74 74 74 74 74 73 73 74 74 74 75 74 74 74 74 74 74 74 74 74 74 74 74 74 74 74 75 74 74 74 74 74 74 74 74 74 74 74 74 74 74 74 74
72 72 73 75 74 76 76 76 76 76 77 77 77 77 77 77 77 76 76 76 76 76 76 76 76 75 75 75 75 75 75 75 75 75 74 74 75 74 75 75 74 74 74 74 74 74 74 73 73 74 74 74 74 74 74 74 74 74 74 74 74 73 73 74 73 74 74 74 74 73 74 74 74 74 74 74 74 74 73 73 74 74 75 74 74
71 72 74 74 73 75 76 76 76 76 77 77 77 77 77 76 76 76 76 76 76 76 76 76 76 75 75 75 75 75 75 75 75 75 75 75 74 74 74 74 74 75 75 74 74 74 74 74 73 74 74 74 74 74 74 74 73 73 74 73 73 73 73 74 74 74 75 75 73 74 74 74 73 72 72 73 73 73 73 73 74 74 74 74 74
72 73 74 74 73 75 77 76 76 76 76 76 77 76 76 76 76 76 76 76 76 76 76 76 76 75 75 75 75 75 75 75 75 75 74 74 74 74 74 74 75 75 75 74 74 74 73 73 74 74 74 73 74 73 73 74 73 74 73 74 74 74 74 74 74 74 74 73 74 74 73 74 73 72 72 72 72 72 72 72 72 73 73 73 74
72 73 74 73 73 76 77 77 76 76 76 76 77 76 76 76 76 76 76 76 76 76 76 76 75 75 75 74 75 75 75 75 75 75 75 75 75 74 74 74 74 75 75 74 74 73 73 73 74 74 73 73 73 73 73 73 73 74 74 74 74 74 74 74 74 74 73 74 75 75 74 74 74 72 73 73 73 72 72 72 72 73 73 74 74
72 73 73 72 73 77 77 76 76 76 76 76 76 76 76 76 77 76 76 76 76 76 76 76 75 75 74 75 75 75 74 75 75 75 75 75 74 74 74 74 74 74 74 74 74 73 73 73 73 74 74 73 74 74 73 73 74 73 73 73 74 74 74 74 74 73 72 73 74 75 75 74 72 73 72 72 73 73 73 73 72 72 72 73 74
72 73 73 72 73 77 77 76 76 76 76 76 76 76 76 76 76 76 76 75 75 76 76 75 75 74 75 75 75 75 75 75 75 75 75 75 75 74 74 74 75 75 74 74 74 73 73 73 74 74 74 74 74 73 74 74 74 74 74 74 73 74 74 74 74 73 73 73 73 74 73 73 72 73 73 73 73 73 73 73 73 72 72 73 74
73 73 73 73 73 76 76 76 76 76 76 76 76 76 76 76 76 75 75 75 75 75 75 75 76 75 76 75 75 75 75 75 75 75 75 74 75 75 74 74 75 75 75 74 74 74 73 73 74 74 74 74 74 74 74 74 74 73 73 73 74 74 74 74 73 74 75 74 74 74 73 74 74 74 73 73 73 73 73 72 72 73 73 74 74
72 73 73 73 76 77 76 76 76 76 76 76 76 76 76 76 75 75 75 75 75 75 74 75 75 75 75 75 75 75 75 75 75 75 75 75 75 75 75 75 75 74 74 74 74 73 73 73 73 74 74 74 73 73 74 74 73 73 73 73 74 74 75 74 73 73 74 74 73 72 73 72 73 72 73 73 73 73 73 72 72 74 73 73 74
72 73 72 73 74 76 76 76 76 76 76 76 76 76 76 75 75 75 75 75 75 75 76 76 75 74 75 75 75 75 75 75 75 75 75 75 75 75 75 75 75 75 74 74 74 73 73 73 72 75 74 74 74 74 73 73 74 73 73 73 74 74 75 73 72 73 74 74 74 74 73 75 73 73 73 73 73 73 73 73 73 73 73 74 74
72 72 72 72 73 76 76 76 76 76 76 76 76 76 75 75 75 75 75 75 75 76 76 76 76 75 75 76 75 75 75 75 75 75 75 75 75 75 75 75 74 74 74 74 74 74 74 73 73 74 75 74 73 74 74 73 73 73 73 73 74 74 74 73 72 73 74 74 75 75 75 74 73 73 73 73 73 73 73 73 73 73 73 74 74
72 71 72 72 73 74 76 76 76 76 76 76 76 75 75 75 75 75 75 75 75 76 76 75 76 76 75 75 75 75 75 75 75 75 75 75 75 75 75 74 75 74 73 74 74 74 74 73 73 75 75 74 74 75 74 73 73 73 73 73 74 75 74 73 72 73 72 74 74 74 74 74 73 73 74 74 73 73 73 73 73 73 73 74 74
71 71 71 72 72 74 75 75 76 76 76 76 75 75 75 75 75 75 75 75 75 75 76 76 75 75 75 75 75 75 75 75 75 76 76 76 75 75 75 75 75 74 74 73 74 74 74 73 73 74 74 74 75 75 74 73 73 73 73 74 74 75 74 73 72 73 73 72 74 75 73 72 73 73 74 74 73 73 73 73 73 73 73 73 73
72 72 71 71 72 73 73 74 75 76 76 75 75 75 75 75 76 75 75 75 75 75 75 75 75 75 75 75 76 75 75 75 76 76 76 76 75 75 75 75 75 75 75 74 74 74 74 74 73 73 74 74 74 73 74 73 73 72 72 73 74 74 74 73 72 72 72 73 73 73 74 74 73 73 74 74 73 74 73 73 73 73 73 73 73
72 72 71 72 72 72 72 74 75 76 75 75 75 75 75 75 75 75 75 75 76 75 74 75 75 75 74 75 75 75 74 75 76 76 75 74 75 76 75 75 75 74 74 74 74 74 74 74 73 73 73 74 74 74 74 74 73 72 73 73 73 74 74 72 71 72 73 72 72 73 73 74 74 73 73 73 74 74 73 73 73 73 73 73 73
71 71 71 71 71 72 72 74 75 75 75 75 75 75 75 75 75 75 75 76 76 74 74 74 74 75 75 75 74 75 75 75 75 75 73 74 76 76 75 74 74 74 74 74 74 74 74 74 74 73 73 73 73 74 74 74 73 73 73 73 73 74 74 71 71 72 73 72 73 72 72 75 74 73 73 73 74 74 73 73 73 73 73 73 73
71 71 71 72 71 72 73 73 74 74 74 73 75 75 75 75 75 75 76 76 75 75 73 74 74 75 75 74 74 75 75 75 75 74 74 76 75 75 75 75 75 74 74 74 74 74 74 74 73 73 73 72 73 73 73 73 73 73 73 73 74 73 70 69 71 71 71 71 72 72 75 74 73 73 73 73 73 73 73 73 73 73 73 73 73
71 71 71 72 71 72 73 73 74 74 73 74 74 75 75 75 75 75 75 75 75 75 75 75 75 75 75 75 75 75 76 76 75 74 74 75 76 75 74 74 75 75 75 75 75 74 73 73 74 74 73 73 73 73 73 74 73 73 73 74 74 71 71 71 69 71 71 72 72 72 75 74 73 73 73 73 73 73 74 73 73 73 73 72 72
70 70 71 72 72 73 74 74 74 74 74 75 74 75 75 75 75 76 76 75 75 75 76 76 75 76 76 76 76 75 75 76 75 75 75 75 75 75 74 74 74 74 75 75 75 74 73 73 73 73 73 74 74 74 75 73 73 73 74 73 71 72 72 71 70 70 71 72 72 74 75 73 73 73 73 73 73 74 73 73 72 73 73 74 73
69 70 71 71 72 73 73 73 73 75 75 75 74 75 75 76 76 76 76 75 75 76 76 76 76 76 76 75 76 75 75 76 76 75 76 75 75 75 74 75 74 73 73 74 73 73 73 73 73 74 75 74 75 75 75 74 74 74 74 73 72 72 72 72 70 70 70 71 72 74 73 72 72 72 73 73 73 73 74 74 73 74 74 73 73
69 69 69 71 72 72 73 73 74 75 74 74 74 75 75 75 75 75 75 75 76 76 76 76 76 76 75 75 75 76 75 76 76 76 75 76 76 76 75 75 75 74 75 74 74 76 75 75 76 75 74 74 73 72 72 74 74 75 75 73 72 72 72 72 71 70 70 72 71 74 73 72 72 72 72 73 73 74 74 73 73 73 73 73 73
70 70 70 70 72 73 73 73 74 75 74 74 74 74 75 74 75 75 75 74 75 75 75 76 76 76 76 75 74 75 74 75 76 75 74 75 76 76 75 75 75 76 75 76 76 76 75 75 76 76 75 75 73 72 72 72 73 73 73 73 74 73 72 72 71 70 71 72 72 74 73 72 72 72 72 73 73 73 73 73 73 73 73 73 72
70 70 69 70 71 72 73 73 73 74 74 74 73 74 75 73 74 74 75 75 74 74 75 75 75 76 75 73 74 75 74 75 75 75 75 75 74 74 75 75 76 77 76 76 73 75 75 74 74 74 73 73 72 73 72 72 72 71 73 74 73 73 73 72 71 72 72 71 73 74 73 72 73 72 72 72 73 73 73 73 73 73 73 72 73
70 69 70 70 71 72 73 73 72 74 75 75 74 74 74 74 74 74 74 74 74 74 74 74 75 76 75 75 72 72 73 73 74 75 74 74 74 73 74 75 75 74 75 73 73 75 75 74 73 74 73 72 71 73 74 72 72 71 72 73 74 73 72 72 72 73 72 72 72 75 74 73 73 73 73 72 72 73 73 73 73 72 73 72 73
70 69 69 69 71 70 73 73 73 73 74 74 74 74 74 73 73 75 74 74 74 73 73 74 75 75 75 75 74 73 72 73 74 74 74 74 73 74 75 73 72 71 74 75 74 74 74 74 75 74 73 73 70 72 71 71 72 73 71 72 73 73 73 72 73 73 72 72 72 74 74 73 73 73 73 73 72 72 73 73 73 73 73 72 72
68 69 69 69 70 70 72 72 72 73 73 73 73 73 73 74 73 73 73 74 74 73 74 75 75 75 75 76 75 73 73 73 74 74 75 74 75 74 72 71 72 72 74 74 75 75 74 73 74 73 74 75 72 71 71 70 71 72 71 71 72 73 73 73 73 72 72 72 72 71 74 74 73 72 72 73 73 72 72 72 72 73 73 73 72
68 69 69 70 70 69 71 71 72 72 73 72 73 73 73 73 73 73 73 74 74 74 75 73 74 73 74 75 74 74 73 73 74 75 74 74 73 74 73 72 72 74 74 75 75 74 74 73 73 74 73 74 72 75 72 69 67 69 71 71 71 70 73 72 73 73 73 72 72 71 74 74 74 73 73 73 72 72 72 71 72 72 72 73 72
69 69 69 70 70 70 69 72 72 73 73 71 73 73 73 73 73 73 73 74 74 75 73 73 73 73 74 76 76 76 74 74 75 75 75 74 74 75 74 75 74 74 76 75 76 75 74 73 73 73 74 74 74 73 72 70 70 69 70 70 70 72 72 73 71 71 70 72 72 71 73 74 74 74 73 73 73 72 72 72 72 72 71 72 72
68 69 70 71 69 69 69 70 71 72 73 71 73 72 73 73 73 73 73 74 75 73 73 73 73 73 75 75 76 75 75 74 75 76 75 76 76 75 75 75 75 75 75 74 75 76 75 75 74 75 75 75 74 73 73 69 68 68 71 70 71 71 72 72 70 69 70 72 72 72 72 73 73 74 73 73 73 72 72 72 72 72 72 71 71
68 69 70 70 69 69 70 70 71 73 73 71 71 72 72 72 72 72 73 73 73 74 73 72 73 74 75 75 76 76 76 75 75 76 76 76 76 76 74 75 75 75 75 75 76 76 76 75 75 75 74 74 72 72 72 68 67 69 69 70 70 71 73 73 72 71 69 71 72 71 71 73 73 74 74 74 73 73 73 73 72 72 73 73 72
69 70 70 70 70 69 70 69 70 71 72 71 72 72 72 72 73 72 73 73 73 73 73 74 73 73 74 76 75 76 75 75 75 76 76 76 76 76 75 74 75 76 76 77 75 74 73 73 73 73 74 73 71 71 69 67 65 66 68 70 71 72 72 71 71 71 71 70 71 72 70 71 72 73 73 74 74 73 73 73 73 73 73 73 73
69 69 69 70 70 70 69 69 70 71 71 72 72 72 72 72 72 73 73 73 73 73 70 71 72 71 72 74 76 76 77 76 77 76 75 75 74 74 74 74 75 76 75 76 75 75 75 74 73 73 73 71 71 71 69 67 67 67 71 71 71 72 72 71 72 71 71 73 73 70 71 69 70 72 73 74 74 74 74 74 73 73 73 73 73
69 70 70 71 70 70 71 69 71 71 72 72 73 73 73 73 73 73 74 75 73 72 71 69 69 69 71 73 76 77 77 77 77 77 76 75 74 74 74 76 76 76 76 76 76 75 75 75 74 73 72 71 72 69 69 68 67 67 71 71 72 73 72 72 71 70 70 72 71 71 71 71 71 71 72 72 73 74 75 74 74 73 73 73 73
70 70 71 71 71 70 72 68 69 71 72 72 73 74 74 74 74 73 72 74 71 71 71 70 70 69 69 71 76 77 77 77 78 77 76 76 74 75 75 75 76 75 76 75 76 76 76 73 76 76 75 73 70 67 67 68 68 67 69 70 71 73 72 73 71 71 71 72 71 69 69 71 72 72 72 71 72 72 75 75 74 74 74 73 73
69 70 71 70 70 71 71 69 69 70 72 73 73 73 73 74 73 73 74 72 70 69 69 71 71 69 72 73 76 77 77 78 78 77 77 76 75 75 74 76 76 76 76 76 76 76 76 74 75 76 75 74 69 67 66 66 67 67 69 69 72 71 72 73 73 72 71 70 71 70 70 70 70 70 70 71 70 72 72 74 75 75 74 74 74
69 70 71 72 72 71 71 71 70 70 71 73 74 74 73 73 72 72 72 72 72 70 70 70 70 71 69 74 77 76 77 77 77 77 77 75 75 75 75 76 76 76 76 75 75 75 75 75 74 76 76 75 72 70 70 69 69 68 67 69 71 72 72 72 73 71 70 68 67 70 68 71 70 71 73 73 71 72 72 72 72 73 73 74 74
69 70 71 71 72 72 71 71 71 70 71 72 73 72 72 70 70 70 70 71 71 71 71 69 70 71 71 74 76 76 76 77 77 77 77 76 75 75 76 76 76 76 75 74 75 74 75 75 75 74 75 73 72 71 70 69 68 69 69 69 70 70 71 71 72 71 71 70 70 70 67 68 70 70 70 71 72 71 72 73 73 72 72 73 75
69 69 70 71 71 71 71 71 71 71 71 71 71 70 70 70 70 68 67 68 71 71 70 70 69 69 72 74 76 75 76 77 77 77 77 77 77 76 76 76 76 76 76 75 75 75 76 76 76 76 73 73 71 69 69 68 69 67 69 67 69 69 70 70 69 68 69 68 69 69 69 69 69 70 71 71 72 71 72 73 73 73 73 73 74
68 69 70 70 71 71 71 71 71 71 70 70 71 71 71 70 69 68 66 66 69 69 69 71 69 69 74 75 75 75 76 76 77 77 77 77 77 76 76 76 76 76 76 76 76 76 76 75 75 74 75 72 71 67 67 67 66 61 62 63 64 66 69 68 66 65 66 67 68 69 70 68 66 68 70 72 73 73 73 73 73 73 73 73 73
68 68 69 69 71 71 71 72 71 70 70 71 71 71 72 72 69 69 67 66 67 68 66 68 70 69 72 75 75 76 76 76 77 77 77 76 76 76 76 77 77 76 76 76 76 76 76 75 75 73 73 73 72 70 69 67 62 65 67 64 62 61 66 65 64 64 64 65 66 66 67 67 67 69 71 71 71 72 71 73 73 73 73 73 73
68 68 68 69 70 71 72 72 71 71 71 71 72 72 72 73 72 71 70 68 68 69 70 71 71 71 71 73 75 76 76 75 76 76 76 76 77 76 76 76 77 77 76 76 76 75 76 76 74 74 73 71 69 69 67 68 66 66 62 62 63 60 58 62 64 65 64 64 64 64 66 67 68 71 72 71 68 70 72 73 73 74 74 73 74
67 68 68 68 68 70 71 72 72 71 71 72 72 72 72 72 72 72 71 70 70 69 69 68 69 71 70 73 74 75 76 75 75 76 75 76 77 76 76 76 76 77 76 75 75 73 75 74 75 75 74 71 68 68 70 65 67 71 64 64 62 61 58 59 58 63 62 61 62 63 65 68 66 71 71 71 71 72 70 70 73 74 74 75 75
67 68 68 68 69 70 71 72 72 71 71 71 72 72 72 71 71 70 69 69 68 69 68 67 67 69 67 69 74 74 74 75 76 76 76 76 77 76 77 76 76 76 76 75 75 75 75 75 75 74 73 74 72 69 68 70 66 70 71 67 67 60 60 63 61 60 67 63 64 63 65 65 66 69 72 71 71 71 72 71 73 73 74 74 74
67 68 68 68 69 70 71 72 72 71 71 72 72 72 71 71 71 69 69 68 68 69 70 68 68 70 70 73 74 74 75 74 75 76 76 76 77 77 77 76 75 76 77 76 76 74 73 74 76 75 74 75 74 70 69 67 70 69 66 63 66 66 62 62 61 62 61 66 63 61 61 64 64 66 66 67 66 68 70 71 70 70 72 74 74
67 67 67 68 69 71 71 71 72 71 71 72 72 72 71 72 71 71 70 69 67 69 72 72 72 73 72 72 73 74 76 75 75 76 76 76 77 77 77 76 76 75 76 75 75 74 74 75 76 76 76 76 74 72 69 67 68 67 66 66 65 67 67 63 62 62 62 61 62 63 60 61 64 63 63 64 63 64 68 73 71 72 73 73 74
66 67 67 68 69 71 71 72 71 72 71 72 72 72 72 72 72 71 71 71 70 70 72 72 72 73 72 73 75 74 76 76 76 76 76 76 76 77 77 77 76 76 76 75 74 74 75 75 76 76 76 76 75 74 73 71 69 66 67 68 66 66 64 63 66 66 63 62 60 59 61 63 63 63 64 64 63 65 67 68 72 70 71 73 75
67 68 68 68 69 70 71 71 71 71 71 72 72 72 72 72 72 71 71 71 71 71 71 72 73 74 73 74 74 75 74 75 76 76 77 76 76 77 76 76 76 74 75 74 75 75 76 76 76 75 76 76 76 75 73 72 71 69 69 69 68 67 66 66 63 63 63 65 61 60 59 59 61 63 66 64 64 64 64 67 70 67 69 71 73
67 67 67 68 68 69 70 71 71 71 72 71 72 72 72 72 72 72 72 71 72 72 72 72 73 73 73 73 73 74 74 74 74 76 76 76 76 77 75 75 76 76 76 76 75 74 74 75 75 76 76 76 75 75 74 74 73 73 71 71 69 66 66 64 64 63 61 62 63 60 58 58 58 59 65 64 67 65 68 69 67 65 70 71 72